Year,Month,Day,Hour,Minute,Value (Times are PST for insolation in W/m^2)
2016,08,10,00,00,0.00
2016,08,10,00,01,0.00
2016,08,10,00,02,0.00
2016,08,10,00,03,0.00
2016,08,10,00,04,0.00
2016,08,10,00,05,0.00
2016,08,10,00,06,0.00
2016,08,10,00,07,0.00
2016,08,10,00,08,0.00
2016,08,10,00,09,0.00
2016,08,10,00,10,0.00
2016,08,10,00,11,0.00
2016,08,10,00,12,0.00
2016,08,10,00,13,0.00
2016,08,10,00,14,0.00
2016,08,10,00,15,0.00
2016,08,10,00,16,0.00
2016,08,10,00,17,0.00
2016,08,10,00,18,0.00
2016,08,10,00,19,0.00
2016,08,10,00,20,0.00
2016,08,10,00,21,0.00
2016,08,10,00,22,0.00
2016,08,10,00,23,0.00
2016,08,10,00,24,0.00
2016,08,10,00,25,0.00
2016,08,10,00,26,0.00
2016,08,10,00,27,0.00
2016,08,10,00,28,0.00
2016,08,10,00,29,0.00
2016,08,10,00,30,0.00
2016,08,10,00,31,0.00
2016,08,10,00,32,0.00
2016,08,10,00,33,0.00
2016,08,10,00,34,0.00
2016,08,10,00,35,0.00
2016,08,10,00,36,0.00
2016,08,10,00,37,0.00
2016,08,10,00,38,0.00
2016,08,10,00,39,0.00
2016,08,10,00,40,0.00
2016,08,10,00,41,0.00
2016,08,10,00,42,0.00
2016,08,10,00,43,0.00
2016,08,10,00,44,0.00
2016,08,10,00,45,0.00
2016,08,10,00,46,0.00
2016,08,10,00,47,0.00
2016,08,10,00,48,0.00
2016,08,10,00,49,0.00
2016,08,10,00,50,0.00
2016,08,10,00,51,0.00
2016,08,10,00,52,0.00
2016,08,10,00,53,0.00
2016,08,10,00,54,0.00
2016,08,10,00,55,0.00
2016,08,10,00,56,0.00
2016,08,10,00,57,0.00
2016,08,10,00,58,0.00
2016,08,10,00,59,0.00
2016,08,10,01,00,0.00
2016,08,10,01,01,0.00
2016,08,10,01,02,0.00
2016,08,10,01,03,0.00
2016,08,10,01,04,0.00
2016,08,10,01,05,0.00
2016,08,10,01,07,0.00
2016,08,10,01,08,0.00
2016,08,10,01,10,0.00
2016,08,10,01,11,0.00
2016,08,10,01,12,0.00
2016,08,10,01,13,0.00
2016,08,10,01,14,0.00
2016,08,10,01,15,0.00
2016,08,10,01,16,0.00
2016,08,10,01,17,0.00
2016,08,10,01,18,0.00
2016,08,10,01,19,0.00
2016,08,10,01,20,0.00
2016,08,10,01,21,0.00
2016,08,10,01,22,0.00
2016,08,10,01,23,0.00
2016,08,10,01,24,0.00
2016,08,10,01,25,0.00
2016,08,10,01,26,0.00
2016,08,10,01,27,0.00
2016,08,10,01,28,0.00
2016,08,10,01,29,0.00
2016,08,10,01,30,0.00
2016,08,10,01,31,0.00
2016,08,10,01,32,0.00
2016,08,10,01,33,0.00
2016,08,10,01,34,0.00
2016,08,10,01,35,0.00
2016,08,10,01,36,0.00
2016,08,10,01,37,0.00
2016,08,10,01,38,0.00
2016,08,10,01,39,0.00
2016,08,10,01,40,0.00
2016,08,10,01,41,0.00
2016,08,10,01,42,0.00
2016,08,10,01,43,0.00
2016,08,10,01,44,0.00
2016,08,10,01,45,0.00
2016,08,10,01,46,0.00
2016,08,10,01,47,0.00
2016,08,10,01,48,0.00
2016,08,10,01,49,0.00
2016,08,10,01,50,0.00
2016,08,10,01,51,0.00
2016,08,10,01,52,0.00
2016,08,10,01,53,0.00
2016,08,10,01,54,0.00
2016,08,10,01,55,0.00
2016,08,10,01,56,0.00
2016,08,10,01,57,0.00
2016,08,10,01,58,0.00
2016,08,10,01,59,0.00
2016,08,10,02,00,0.00
2016,08,10,02,01,0.00
2016,08,10,02,02,0.00
2016,08,10,02,03,0.00
2016,08,10,02,04,0.00
2016,08,10,02,05,0.00
2016,08,10,02,06,0.00
2016,08,10,02,07,0.00
2016,08,10,02,08,0.00
2016,08,10,02,09,0.00
2016,08,10,02,10,0.00
2016,08,10,02,11,0.00
2016,08,10,02,12,0.00
2016,08,10,02,13,0.00
2016,08,10,02,14,0.00
2016,08,10,02,15,0.00
2016,08,10,02,16,0.00
2016,08,10,02,17,0.00
2016,08,10,02,18,0.00
2016,08,10,02,19,0.00
2016,08,10,02,20,0.00
2016,08,10,02,21,0.00
2016,08,10,02,22,0.00
2016,08,10,02,23,0.00
2016,08,10,02,24,0.00
2016,08,10,02,25,0.00
2016,08,10,02,26,0.00
2016,08,10,02,27,0.00
2016,08,10,02,28,0.00
2016,08,10,02,29,0.00
2016,08,10,02,30,0.00
2016,08,10,02,32,0.00
2016,08,10,02,33,0.00
2016,08,10,02,34,0.00
2016,08,10,02,35,0.00
2016,08,10,02,36,0.00
2016,08,10,02,37,0.00
2016,08,10,02,38,0.00
2016,08,10,02,39,0.00
2016,08,10,02,40,0.00
2016,08,10,02,41,0.00
2016,08,10,02,42,0.00
2016,08,10,02,43,0.00
2016,08,10,02,44,0.00
2016,08,10,02,45,0.00
2016,08,10,02,46,0.00
2016,08,10,02,47,0.00
2016,08,10,02,48,0.00
2016,08,10,02,49,0.00
2016,08,10,02,50,0.00
2016,08,10,02,51,0.00
2016,08,10,02,52,0.00
2016,08,10,02,53,0.00
2016,08,10,02,54,0.00
2016,08,10,02,55,0.00
2016,08,10,02,56,0.00
2016,08,10,02,57,0.00
2016,08,10,02,58,0.00
2016,08,10,02,59,0.00
2016,08,10,03,00,0.00
2016,08,10,03,01,0.00
2016,08,10,03,03,0.00
2016,08,10,03,04,0.00
2016,08,10,03,05,0.00
2016,08,10,03,06,0.00
2016,08,10,03,07,0.00
2016,08,10,03,09,0.00
2016,08,10,03,10,0.00
2016,08,10,03,11,0.00
2016,08,10,03,12,0.00
2016,08,10,03,13,0.00
2016,08,10,03,14,0.00
2016,08,10,03,15,0.00
2016,08,10,03,16,0.00
2016,08,10,03,17,0.00
2016,08,10,03,18,0.00
2016,08,10,03,19,0.00
2016,08,10,03,20,0.00
2016,08,10,03,21,0.00
2016,08,10,03,22,0.00
2016,08,10,03,23,0.00
2016,08,10,03,24,0.00
2016,08,10,03,25,0.00
2016,08,10,03,26,0.00
2016,08,10,03,27,0.00
2016,08,10,03,28,0.00
2016,08,10,03,29,0.00
2016,08,10,03,30,0.00
2016,08,10,03,31,0.00
2016,08,10,03,32,0.00
2016,08,10,03,33,0.00
2016,08,10,03,34,0.00
2016,08,10,03,35,0.00
2016,08,10,03,36,0.00
2016,08,10,03,37,0.00
2016,08,10,03,38,0.00
2016,08,10,03,39,0.00
2016,08,10,03,40,0.00
2016,08,10,03,41,0.00
2016,08,10,03,43,0.00
2016,08,10,03,44,0.00
2016,08,10,03,45,0.00
2016,08,10,03,46,0.00
2016,08,10,03,47,0.00
2016,08,10,03,48,0.00
2016,08,10,03,49,0.00
2016,08,10,03,50,0.00
2016,08,10,03,51,0.00
2016,08,10,03,52,0.00
2016,08,10,03,53,0.00
2016,08,10,03,54,0.00
2016,08,10,03,55,0.00
2016,08,10,03,57,0.00
2016,08,10,03,58,0.00
2016,08,10,03,59,0.00
2016,08,10,04,00,0.00
2016,08,10,04,01,0.00
2016,08,10,04,02,0.00
2016,08,10,04,03,0.00
2016,08,10,04,04,0.00
2016,08,10,04,05,0.00
2016,08,10,04,06,0.00
2016,08,10,04,07,0.00
2016,08,10,04,08,0.00
2016,08,10,04,09,0.00
2016,08,10,04,10,0.00
2016,08,10,04,11,0.00
2016,08,10,04,12,0.00
2016,08,10,04,13,0.00
2016,08,10,04,14,0.00
2016,08,10,04,15,0.00
2016,08,10,04,16,0.00
2016,08,10,04,17,0.00
2016,08,10,04,19,0.00
2016,08,10,04,20,0.00
2016,08,10,04,21,0.00
2016,08,10,04,22,0.00
2016,08,10,04,23,0.00
2016,08,10,04,24,0.00
2016,08,10,04,25,0.00
2016,08,10,04,26,0.00
2016,08,10,04,27,0.00
2016,08,10,04,28,0.00
2016,08,10,04,29,0.00
2016,08,10,04,30,0.00
2016,08,10,04,31,0.00
2016,08,10,04,32,0.00
2016,08,10,04,33,0.00
2016,08,10,04,34,0.00
2016,08,10,04,35,0.00
2016,08,10,04,36,0.00
2016,08,10,04,37,0.00
2016,08,10,04,38,0.00
2016,08,10,04,39,0.00
2016,08,10,04,40,0.00
2016,08,10,04,41,0.00
2016,08,10,04,42,0.00
2016,08,10,04,43,0.00
2016,08,10,04,44,0.00
2016,08,10,04,45,0.00
2016,08,10,04,46,0.00
2016,08,10,04,47,0.00
2016,08,10,04,48,0.00
2016,08,10,04,49,0.00
2016,08,10,04,50,0.00
2016,08,10,04,51,0.00
2016,08,10,04,52,0.00
2016,08,10,04,53,0.00
2016,08,10,04,54,0.00
2016,08,10,04,55,0.00
2016,08,10,04,56,0.00
2016,08,10,04,57,0.00
2016,08,10,04,58,0.00
2016,08,10,04,59,0.00
2016,08,10,05,00,0.00
2016,08,10,05,01,0.00
2016,08,10,05,02,0.00
2016,08,10,05,03,0.00
2016,08,10,05,04,0.00
2016,08,10,05,05,0.00
2016,08,10,05,06,0.00
2016,08,10,05,07,0.00
2016,08,10,05,08,0.00
2016,08,10,05,09,0.00
2016,08,10,05,10,0.00
2016,08,10,05,11,0.00
2016,08,10,05,12,0.00
2016,08,10,05,13,0.00
2016,08,10,05,14,0.00
2016,08,10,05,15,0.00
2016,08,10,05,16,0.00
2016,08,10,05,17,0.00
2016,08,10,05,18,0.00
2016,08,10,05,19,0.00
2016,08,10,05,21,0.00
2016,08,10,05,22,0.00
2016,08,10,05,23,0.00
2016,08,10,05,24,0.00
2016,08,10,05,25,0.00
2016,08,10,05,26,0.00
2016,08,10,05,27,0.00
2016,08,10,05,28,0.00
2016,08,10,05,29,0.00
2016,08,10,05,30,0.00
2016,08,10,05,31,0.00
2016,08,10,05,32,0.00
2016,08,10,05,33,0.00
2016,08,10,05,34,0.00
2016,08,10,05,36,0.00
2016,08,10,05,37,0.00
2016,08,10,05,38,0.00
2016,08,10,05,39,0.00
2016,08,10,05,40,0.00
2016,08,10,05,41,0.00
2016,08,10,05,42,0.00
2016,08,10,05,43,0.00
2016,08,10,05,44,0.00
2016,08,10,05,45,0.00
2016,08,10,05,46,0.00
2016,08,10,05,47,0.00
2016,08,10,05,48,0.00
2016,08,10,05,49,0.00
2016,08,10,05,50,0.00
2016,08,10,05,51,0.00
2016,08,10,05,52,0.00
2016,08,10,05,53,0.00
2016,08,10,05,54,0.00
2016,08,10,05,55,0.00
2016,08,10,05,56,0.00
2016,08,10,05,57,0.00
2016,08,10,05,58,0.00
2016,08,10,05,59,0.00
2016,08,10,06,00,0.00
2016,08,10,06,01,0.00
2016,08,10,06,02,0.00
2016,08,10,06,03,0.00
2016,08,10,06,04,0.00
2016,08,10,06,05,0.00
2016,08,10,06,06,0.00
2016,08,10,06,07,0.00
2016,08,10,06,08,0.00
2016,08,10,06,09,0.00
2016,08,10,06,10,0.00
2016,08,10,06,11,0.00
2016,08,10,06,12,0.00
2016,08,10,06,13,5.00
2016,08,10,06,14,5.00
2016,08,10,06,15,5.00
2016,08,10,06,16,7.00
2016,08,10,06,17,7.00
2016,08,10,06,18,7.00
2016,08,10,06,19,7.00
2016,08,10,06,20,9.00
2016,08,10,06,21,9.00
2016,08,10,06,22,9.00
2016,08,10,06,23,11.00
2016,08,10,06,24,11.00
2016,08,10,06,25,11.00
2016,08,10,06,26,11.00
2016,08,10,06,27,11.00
2016,08,10,06,28,12.00
2016,08,10,06,29,12.00
2016,08,10,06,30,12.00
2016,08,10,06,31,12.00
2016,08,10,06,32,12.00
2016,08,10,06,33,12.00
2016,08,10,06,34,12.00
2016,08,10,06,35,12.00
2016,08,10,06,36,12.00
2016,08,10,06,37,14.00
2016,08,10,06,38,14.00
2016,08,10,06,39,14.00
2016,08,10,06,40,16.00
2016,08,10,06,41,16.00
2016,08,10,06,42,16.00
2016,08,10,06,43,18.00
2016,08,10,06,44,18.00
2016,08,10,06,45,21.00
2016,08,10,06,46,21.00
2016,08,10,06,47,21.00
2016,08,10,06,48,23.00
2016,08,10,06,49,25.00
2016,08,10,06,50,25.00
2016,08,10,06,51,28.00
2016,08,10,06,52,30.00
2016,08,10,06,53,32.00
2016,08,10,06,54,33.00
2016,08,10,06,55,35.00
2016,08,10,06,56,35.00
2016,08,10,06,57,37.00
2016,08,10,06,58,37.00
2016,08,10,06,59,37.00
2016,08,10,07,01,37.00
2016,08,10,07,02,39.00
2016,08,10,07,03,39.00
2016,08,10,07,04,40.00
2016,08,10,07,05,40.00
2016,08,10,07,06,42.00
2016,08,10,07,07,42.00
2016,08,10,07,09,44.00
2016,08,10,07,10,44.00
2016,08,10,07,11,44.00
2016,08,10,07,12,46.00
2016,08,10,07,13,46.00
2016,08,10,07,14,49.00
2016,08,10,07,15,51.00
2016,08,10,07,16,53.00
2016,08,10,07,17,54.00
2016,08,10,07,18,56.00
2016,08,10,07,19,58.00
2016,08,10,07,20,60.00
2016,08,10,07,21,60.00
2016,08,10,07,22,60.00
2016,08,10,07,23,62.00
2016,08,10,07,24,63.00
2016,08,10,07,25,65.00
2016,08,10,07,26,67.00
2016,08,10,07,27,67.00
2016,08,10,07,28,69.00
2016,08,10,07,29,69.00
2016,08,10,07,30,70.00
2016,08,10,07,31,70.00
2016,08,10,07,32,70.00
2016,08,10,07,33,70.00
2016,08,10,07,34,70.00
2016,08,10,07,35,70.00
2016,08,10,07,36,72.00
2016,08,10,07,37,70.00
2016,08,10,07,38,70.00
2016,08,10,07,39,72.00
2016,08,10,07,40,74.00
2016,08,10,07,41,76.00
2016,08,10,07,42,81.00
2016,08,10,07,43,81.00
2016,08,10,07,44,86.00
2016,08,10,07,45,86.00
2016,08,10,07,46,86.00
2016,08,10,07,47,86.00
2016,08,10,07,48,88.00
2016,08,10,07,49,91.00
2016,08,10,07,50,95.00
2016,08,10,07,51,97.00
2016,08,10,07,52,98.00
2016,08,10,07,53,100.00
2016,08,10,07,54,104.00
2016,08,10,07,55,107.00
2016,08,10,07,56,111.00
2016,08,10,07,57,113.00
2016,08,10,07,58,114.00
2016,08,10,07,59,118.00
2016,08,10,08,00,118.00
2016,08,10,08,01,114.00
2016,08,10,08,02,118.00
2016,08,10,08,03,120.00
2016,08,10,08,04,132.00
2016,08,10,08,05,125.00
2016,08,10,08,06,125.00
2016,08,10,08,07,135.00
2016,08,10,08,08,137.00
2016,08,10,08,09,139.00
2016,08,10,08,10,142.00
2016,08,10,08,11,148.00
2016,08,10,08,12,155.00
2016,08,10,08,13,160.00
2016,08,10,08,14,165.00
2016,08,10,08,15,171.00
2016,08,10,08,16,171.00
2016,08,10,08,17,174.00
2016,08,10,08,18,174.00
2016,08,10,08,19,176.00
2016,08,10,08,20,178.00
2016,08,10,08,21,181.00
2016,08,10,08,22,178.00
2016,08,10,08,23,174.00
2016,08,10,08,24,186.00
2016,08,10,08,25,223.00
2016,08,10,08,26,244.00
2016,08,10,08,27,283.00
2016,08,10,08,28,213.00
2016,08,10,08,29,301.00
2016,08,10,08,30,165.00
2016,08,10,08,31,165.00
2016,08,10,08,32,160.00
2016,08,10,08,33,160.00
2016,08,10,08,34,162.00
2016,08,10,08,35,172.00
2016,08,10,08,36,146.00
2016,08,10,08,37,144.00
2016,08,10,08,38,142.00
2016,08,10,08,39,142.00
2016,08,10,08,40,141.00
2016,08,10,08,41,139.00
2016,08,10,08,42,139.00
2016,08,10,08,43,137.00
2016,08,10,08,44,137.00
2016,08,10,08,45,134.00
2016,08,10,08,46,128.00
2016,08,10,08,47,127.00
2016,08,10,08,48,132.00
2016,08,10,08,49,141.00
2016,08,10,08,50,148.00
2016,08,10,08,51,149.00
2016,08,10,08,52,156.00
2016,08,10,08,53,155.00
2016,08,10,08,54,155.00
2016,08,10,08,55,156.00
2016,08,10,08,56,156.00
2016,08,10,08,57,156.00
2016,08,10,08,58,174.00
2016,08,10,08,59,188.00
2016,08,10,09,00,181.00
2016,08,10,09,01,186.00
2016,08,10,09,02,169.00
2016,08,10,09,03,167.00
2016,08,10,09,04,183.00
2016,08,10,09,05,197.00
2016,08,10,09,06,220.00
2016,08,10,09,07,220.00
2016,08,10,09,08,220.00
2016,08,10,09,09,227.00
2016,08,10,09,10,229.00
2016,08,10,09,11,241.00
2016,08,10,09,12,255.00
2016,08,10,09,13,255.00
2016,08,10,09,14,325.00
2016,08,10,09,15,257.00
2016,08,10,09,16,297.00
2016,08,10,09,17,322.00
2016,08,10,09,18,297.00
2016,08,10,09,19,297.00
2016,08,10,09,20,367.00
2016,08,10,09,21,357.00
2016,08,10,09,22,357.00
2016,08,10,09,23,522.00
2016,08,10,09,24,510.00
2016,08,10,09,25,469.00
2016,08,10,09,26,478.00
2016,08,10,09,27,425.00
2016,08,10,09,28,346.00
2016,08,10,09,29,322.00
2016,08,10,09,30,346.00
2016,08,10,09,31,357.00
2016,08,10,09,32,357.00
2016,08,10,09,33,373.00
2016,08,10,09,34,338.00
2016,08,10,09,35,258.00
2016,08,10,09,36,257.00
2016,08,10,09,37,250.00
2016,08,10,09,38,250.00
2016,08,10,09,39,241.00
2016,08,10,09,40,239.00
2016,08,10,09,41,251.00
2016,08,10,09,42,262.00
2016,08,10,09,43,287.00
2016,08,10,09,44,297.00
2016,08,10,09,45,299.00
2016,08,10,09,46,304.00
2016,08,10,09,47,323.00
2016,08,10,09,48,332.00
2016,08,10,09,49,323.00
2016,08,10,09,50,325.00
2016,08,10,09,51,352.00
2016,08,10,09,52,441.00
2016,08,10,09,53,487.00
2016,08,10,09,54,396.00
2016,08,10,09,55,348.00
2016,08,10,09,56,332.00
2016,08,10,09,57,339.00
2016,08,10,09,58,325.00
2016,08,10,09,59,316.00
2016,08,10,10,00,315.00
2016,08,10,10,01,318.00
2016,08,10,10,02,322.00
2016,08,10,10,03,323.00
2016,08,10,10,04,330.00
2016,08,10,10,05,339.00
2016,08,10,10,06,350.00
2016,08,10,10,07,325.00
2016,08,10,10,09,315.00
2016,08,10,10,10,313.00
2016,08,10,10,11,315.00
2016,08,10,10,12,316.00
2016,08,10,10,13,320.00
2016,08,10,10,14,322.00
2016,08,10,10,15,323.00
2016,08,10,10,16,329.00
2016,08,10,10,17,332.00
2016,08,10,10,18,338.00
2016,08,10,10,19,336.00
2016,08,10,10,20,332.00
2016,08,10,10,21,334.00
2016,08,10,10,22,336.00
2016,08,10,10,23,332.00
2016,08,10,10,24,334.00
2016,08,10,10,25,334.00
2016,08,10,10,26,338.00
2016,08,10,10,27,346.00
2016,08,10,10,28,346.00
2016,08,10,10,29,343.00
2016,08,10,10,30,352.00
2016,08,10,10,31,350.00
2016,08,10,10,32,353.00
2016,08,10,10,33,352.00
2016,08,10,10,34,338.00
2016,08,10,10,35,332.00
2016,08,10,10,36,330.00
2016,08,10,10,37,332.00
2016,08,10,10,38,322.00
2016,08,10,10,40,309.00
2016,08,10,10,41,308.00
2016,08,10,10,42,304.00
2016,08,10,10,43,301.00
2016,08,10,10,44,295.00
2016,08,10,10,45,292.00
2016,08,10,10,46,287.00
2016,08,10,10,47,288.00
2016,08,10,10,48,288.00
2016,08,10,10,49,288.00
2016,08,10,10,50,288.00
2016,08,10,10,51,288.00
2016,08,10,10,52,287.00
2016,08,10,10,53,287.00
2016,08,10,10,54,287.00
2016,08,10,10,55,287.00
2016,08,10,10,57,290.00
2016,08,10,10,58,295.00
2016,08,10,10,59,301.00
2016,08,10,11,00,306.00
2016,08,10,11,01,309.00
2016,08,10,11,02,311.00
2016,08,10,11,03,311.00
2016,08,10,11,04,311.00
2016,08,10,11,05,309.00
2016,08,10,11,06,309.00
2016,08,10,11,07,311.00
2016,08,10,11,08,313.00
2016,08,10,11,09,316.00
2016,08,10,11,10,320.00
2016,08,10,11,11,325.00
2016,08,10,11,12,329.00
2016,08,10,11,13,330.00
2016,08,10,11,14,330.00
2016,08,10,11,15,334.00
2016,08,10,11,16,336.00
2016,08,10,11,17,345.00
2016,08,10,11,18,376.00
2016,08,10,11,19,360.00
2016,08,10,11,20,364.00
2016,08,10,11,21,364.00
2016,08,10,11,22,374.00
2016,08,10,11,23,374.00
2016,08,10,11,24,381.00
2016,08,10,11,25,399.00
2016,08,10,11,26,471.00
2016,08,10,11,27,452.00
2016,08,10,11,28,443.00
2016,08,10,11,29,469.00
2016,08,10,11,30,512.00
2016,08,10,11,31,520.00
2016,08,10,11,32,462.00
2016,08,10,11,33,446.00
2016,08,10,11,34,441.00
2016,08,10,11,35,434.00
2016,08,10,11,36,422.00
2016,08,10,11,37,417.00
2016,08,10,11,38,413.00
2016,08,10,11,39,413.00
2016,08,10,11,40,415.00
2016,08,10,11,41,422.00
2016,08,10,11,42,436.00
2016,08,10,11,43,461.00
2016,08,10,11,44,520.00
2016,08,10,11,45,499.00
2016,08,10,11,46,524.00
2016,08,10,11,47,599.00
2016,08,10,11,48,561.00
2016,08,10,11,49,561.00
2016,08,10,11,50,888.00
2016,08,10,11,51,888.00
2016,08,10,11,52,606.00
2016,08,10,11,53,563.00
2016,08,10,11,54,568.00
2016,08,10,11,55,606.00
2016,08,10,11,56,548.00
2016,08,10,11,57,548.00
2016,08,10,11,58,605.00
2016,08,10,11,59,587.00
2016,08,10,12,00,587.00
2016,08,10,12,01,629.00
2016,08,10,12,02,629.00
2016,08,10,12,03,584.00
2016,08,10,12,04,643.00
2016,08,10,12,05,577.00
2016,08,10,12,06,563.00
2016,08,10,12,07,594.00
2016,08,10,12,08,624.00
2016,08,10,12,09,603.00
2016,08,10,12,10,578.00
2016,08,10,12,11,554.00
2016,08,10,12,12,557.00
2016,08,10,12,13,538.00
2016,08,10,12,14,499.00
2016,08,10,12,15,499.00
2016,08,10,12,16,469.00
2016,08,10,12,17,457.00
2016,08,10,12,18,448.00
2016,08,10,12,19,424.00
2016,08,10,12,20,406.00
2016,08,10,12,21,394.00
2016,08,10,12,22,381.00
2016,08,10,12,23,371.00
2016,08,10,12,24,359.00
2016,08,10,12,25,338.00
2016,08,10,12,26,327.00
2016,08,10,12,27,316.00
2016,08,10,12,28,306.00
2016,08,10,12,29,301.00
2016,08,10,12,30,295.00
2016,08,10,12,31,283.00
2016,08,10,12,32,278.00
2016,08,10,12,33,278.00
2016,08,10,12,34,276.00
2016,08,10,12,35,276.00
2016,08,10,12,36,278.00
2016,08,10,12,37,285.00
2016,08,10,12,38,290.00
2016,08,10,12,39,294.00
2016,08,10,12,40,297.00
2016,08,10,12,41,301.00
2016,08,10,12,42,306.00
2016,08,10,12,43,308.00
2016,08,10,12,44,308.00
2016,08,10,12,45,309.00
2016,08,10,12,46,311.00
2016,08,10,12,47,315.00
2016,08,10,12,48,320.00
2016,08,10,12,49,322.00
2016,08,10,12,50,325.00
2016,08,10,12,51,325.00
2016,08,10,12,52,330.00
2016,08,10,12,53,332.00
2016,08,10,12,54,338.00
2016,08,10,12,55,339.00
2016,08,10,12,56,343.00
2016,08,10,12,57,346.00
2016,08,10,12,58,350.00
2016,08,10,12,59,355.00
2016,08,10,13,00,366.00
2016,08,10,13,01,369.00
2016,08,10,13,03,380.00
2016,08,10,13,04,385.00
2016,08,10,13,05,388.00
2016,08,10,13,06,396.00
2016,08,10,13,07,399.00
2016,08,10,13,08,404.00
2016,08,10,13,09,404.00
2016,08,10,13,10,413.00
2016,08,10,13,11,420.00
2016,08,10,13,12,431.00
2016,08,10,13,13,434.00
2016,08,10,13,14,434.00
2016,08,10,13,15,432.00
2016,08,10,13,16,431.00
2016,08,10,13,17,425.00
2016,08,10,13,18,418.00
2016,08,10,13,19,417.00
2016,08,10,13,20,417.00
2016,08,10,13,21,418.00
2016,08,10,13,22,422.00
2016,08,10,13,23,425.00
2016,08,10,13,24,427.00
2016,08,10,13,25,427.00
2016,08,10,13,26,427.00
2016,08,10,13,27,427.00
2016,08,10,13,28,429.00
2016,08,10,13,29,439.00
2016,08,10,13,30,443.00
2016,08,10,13,31,448.00
2016,08,10,13,32,448.00
2016,08,10,13,33,441.00
2016,08,10,13,34,438.00
2016,08,10,13,35,429.00
2016,08,10,13,36,429.00
2016,08,10,13,37,432.00
2016,08,10,13,38,438.00
2016,08,10,13,39,445.00
2016,08,10,13,40,459.00
2016,08,10,13,41,466.00
2016,08,10,13,42,469.00
2016,08,10,13,43,476.00
2016,08,10,13,44,482.00
2016,08,10,13,45,482.00
2016,08,10,13,46,492.00
2016,08,10,13,47,517.00
2016,08,10,13,48,580.00
2016,08,10,13,49,548.00
2016,08,10,13,50,564.00
2016,08,10,13,51,545.00
2016,08,10,13,52,545.00
2016,08,10,13,53,550.00
2016,08,10,13,54,601.00
2016,08,10,13,55,566.00
2016,08,10,13,56,543.00
2016,08,10,13,57,543.00
2016,08,10,13,58,585.00
2016,08,10,13,59,510.00
2016,08,10,14,00,503.00
2016,08,10,14,01,468.00
2016,08,10,14,02,446.00
2016,08,10,14,03,446.00
2016,08,10,14,04,461.00
2016,08,10,14,05,468.00
2016,08,10,14,06,485.00
2016,08,10,14,07,510.00
2016,08,10,14,08,506.00
2016,08,10,14,09,506.00
2016,08,10,14,10,573.00
2016,08,10,14,11,1230.00
2016,08,10,14,12,1252.00
2016,08,10,14,13,1281.00
2016,08,10,14,14,1281.00
2016,08,10,14,15,1281.00
2016,08,10,14,16,1281.00
2016,08,10,14,17,1281.00
2016,08,10,14,18,1281.00
2016,08,10,14,19,1281.00
2016,08,10,14,20,1281.00
2016,08,10,14,21,1281.00
2016,08,10,14,22,506.00
2016,08,10,14,23,598.00
2016,08,10,14,24,584.00
2016,08,10,14,25,584.00
2016,08,10,14,26,817.00
2016,08,10,14,27,817.00
2016,08,10,14,28,817.00
2016,08,10,14,29,499.00
2016,08,10,14,30,526.00
2016,08,10,14,31,573.00
2016,08,10,14,32,584.00
2016,08,10,14,33,584.00
2016,08,10,14,34,584.00
2016,08,10,14,35,584.00
2016,08,10,14,36,584.00
2016,08,10,14,37,584.00
2016,08,10,14,38,584.00
2016,08,10,14,39,584.00
2016,08,10,14,40,584.00
2016,08,10,14,41,1222.00
2016,08,10,14,42,1222.00
2016,08,10,14,43,1222.00
2016,08,10,14,44,1222.00
2016,08,10,14,45,1222.00
2016,08,10,14,46,1345.00
2016,08,10,14,47,1336.00
2016,08,10,14,48,1336.00
2016,08,10,14,49,554.00
2016,08,10,14,50,636.00
2016,08,10,14,51,636.00
2016,08,10,14,52,636.00
2016,08,10,14,53,728.00
2016,08,10,14,54,628.00
2016,08,10,14,55,628.00
2016,08,10,14,56,628.00
2016,08,10,14,57,628.00
2016,08,10,14,58,628.00
2016,08,10,14,59,628.00
2016,08,10,15,00,628.00
2016,08,10,15,01,515.00
2016,08,10,15,02,515.00
2016,08,10,15,03,916.00
2016,08,10,15,04,1100.00
2016,08,10,15,05,1071.00
2016,08,10,15,06,1037.00
2016,08,10,15,07,1004.00
2016,08,10,15,08,990.00
2016,08,10,15,09,963.00
2016,08,10,15,10,963.00
2016,08,10,15,11,963.00
2016,08,10,15,12,974.00
2016,08,10,15,13,997.00
2016,08,10,15,14,1020.00
2016,08,10,15,15,974.00
2016,08,10,15,16,974.00
2016,08,10,15,17,974.00
2016,08,10,15,18,974.00
2016,08,10,15,19,974.00
2016,08,10,15,20,974.00
2016,08,10,15,21,250.00
2016,08,10,15,22,322.00
2016,08,10,15,23,406.00
2016,08,10,15,24,475.00
2016,08,10,15,25,475.00
2016,08,10,15,26,283.00
2016,08,10,15,27,257.00
2016,08,10,15,28,295.00
2016,08,10,15,29,295.00
2016,08,10,15,30,295.00
2016,08,10,15,31,295.00
2016,08,10,15,32,703.00
2016,08,10,15,33,703.00
2016,08,10,15,34,703.00
2016,08,10,15,35,703.00
2016,08,10,15,36,881.00
2016,08,10,15,37,881.00
2016,08,10,15,38,854.00
2016,08,10,15,39,849.00
2016,08,10,15,40,847.00
2016,08,10,15,41,847.00
2016,08,10,15,42,844.00
2016,08,10,15,43,840.00
2016,08,10,15,44,844.00
2016,08,10,15,45,844.00
2016,08,10,15,46,844.00
2016,08,10,15,47,844.00
2016,08,10,15,48,863.00
2016,08,10,15,49,863.00
2016,08,10,15,50,838.00
2016,08,10,15,51,838.00
2016,08,10,15,52,844.00
2016,08,10,15,53,823.00
2016,08,10,15,54,823.00
2016,08,10,15,55,823.00
2016,08,10,15,56,847.00
2016,08,10,15,57,846.00
2016,08,10,15,58,846.00
2016,08,10,15,59,846.00
2016,08,10,16,00,842.00
2016,08,10,16,01,856.00
2016,08,10,16,02,861.00
2016,08,10,16,03,875.00
2016,08,10,16,04,889.00
2016,08,10,16,05,916.00
2016,08,10,16,06,916.00
2016,08,10,16,08,830.00
2016,08,10,16,09,830.00
2016,08,10,16,10,830.00
2016,08,10,16,11,735.00
2016,08,10,16,12,814.00
2016,08,10,16,13,884.00
2016,08,10,16,14,831.00
2016,08,10,16,15,831.00
2016,08,10,16,16,831.00
2016,08,10,16,17,831.00
2016,08,10,16,18,831.00
2016,08,10,16,19,900.00
2016,08,10,16,20,893.00
2016,08,10,16,21,889.00
2016,08,10,16,22,861.00
2016,08,10,16,23,867.00
2016,08,10,16,24,840.00
2016,08,10,16,25,805.00
2016,08,10,16,26,796.00
2016,08,10,16,27,795.00
2016,08,10,16,28,789.00
2016,08,10,16,29,786.00
2016,08,10,16,30,788.00
2016,08,10,16,31,793.00
2016,08,10,16,32,803.00
2016,08,10,16,33,816.00
2016,08,10,16,34,816.00
2016,08,10,16,35,819.00
2016,08,10,16,36,821.00
2016,08,10,16,37,807.00
2016,08,10,16,38,800.00
2016,08,10,16,39,793.00
2016,08,10,16,40,793.00
2016,08,10,16,41,791.00
2016,08,10,16,42,795.00
2016,08,10,16,43,793.00
2016,08,10,16,44,780.00
2016,08,10,16,45,775.00
2016,08,10,16,46,770.00
2016,08,10,16,47,765.00
2016,08,10,16,48,761.00
2016,08,10,16,49,751.00
2016,08,10,16,50,745.00
2016,08,10,16,51,740.00
2016,08,10,16,52,726.00
2016,08,10,16,53,722.00
2016,08,10,16,54,710.00
2016,08,10,16,55,705.00
2016,08,10,16,56,705.00
2016,08,10,16,57,705.00
2016,08,10,16,58,705.00
2016,08,10,16,59,708.00
2016,08,10,17,00,703.00
2016,08,10,17,01,693.00
2016,08,10,17,02,689.00
2016,08,10,17,03,682.00
2016,08,10,17,04,682.00
2016,08,10,17,05,531.00
2016,08,10,17,06,664.00
2016,08,10,17,07,656.00
2016,08,10,17,08,654.00
2016,08,10,17,09,650.00
2016,08,10,17,10,650.00
2016,08,10,17,11,649.00
2016,08,10,17,12,647.00
2016,08,10,17,13,645.00
2016,08,10,17,14,643.00
2016,08,10,17,15,635.00
2016,08,10,17,16,635.00
2016,08,10,17,17,501.00
2016,08,10,17,18,626.00
2016,08,10,17,19,564.00
2016,08,10,17,20,582.00
2016,08,10,17,21,582.00
2016,08,10,17,22,267.00
2016,08,10,17,23,155.00
2016,08,10,17,24,171.00
2016,08,10,17,25,132.00
2016,08,10,17,26,213.00